[[{"header":{"parameterUnit":"m.s-1","parameterCategory":1,"la1":30.2991,"la2":30.254,"lo1":-89.0895,"lo2":-89.0444,"dy":0.0017,"dx":0.0017,"nx":28,"ny":28,"refTime":"2024-02-10T09:00:00:Z","depth":0,"parameterNumber":2,"parameterNumberName":"U-component_of_WINDS"},"data":[0,0,0,0,0,0,0,0,0,0,0,0,0,0,0,0,0,0,0,0,0,0,0,0,0,0,0,0,0,0,0,0,0,0,0,0,0,0,0,0,0,0,0,0,0,0,0,0,0,0,0,0,0,0,0,0,0,0,-2.8172,-2.8173,0,-2.8276,-2.8277,-2.8278,-2.826,-2.8258,-2.8256,-2.8254,-2.836,-2.8365,-2.8369,0,0,0,0,0,0,0,0,0,0,0,0,0,-2.7958,-2.7962,-2.8172,-2.8173,-2.8174,-2.8275,-2.8277,-2.8278,-2.826,-2.8258,-2.8256,-2.8253,-2.8359,-2.8364,-2.837,0,0,0,0,0,0,0,0,0,0,0,0,0,-2.8055,-2.7963,-2.8171,-2.8177,-2.8179,-2.8275,-2.8277,-2.8279,-2.826,-2.8258,-2.8255,-2.8252,-2.8357,-2.8364,-2.837,-2.8467,0,0,-2.8391,-2.8394,0,0,0,0,0,0,0,0,-2.805,-2.8063,-2.8175,-2.8177,-2.8179,-2.8252,-2.824,-2.8342,-2.8261,-2.8229,-2.8254,-2.8251,-2.8326,-2.8336,-2.8361,-2.8472,-2.8477,-2.8392,-2.8396,-2.8399,-2.8401,0,0,0,0,0,0,0,-2.8043,-2.8058,-2.8213,-2.8177,-2.8179,-2.8175,-2.8186,-2.826,-2.8292,-2.8232,-2.8231,-2.8244,-2.8327,-2.8355,-2.8363,-2.8478,-2.8391,-2.8397,-2.8402,-2.8404,-2.8675,-2.8678,0,0,0,0,0,0,-2.8034,-2.8053,-2.8209,-2.8216,-2.8106,-2.8181,-2.8193,-2.8231,-2.8291,-2.8298,-2.8246,-2.8242,-2.8344,-2.8355,-2.8367,-2.8484,-2.8399,-2.8405,-2.8409,-2.8672,-2.8675,-2.8679,0,0,0,0,0,0,-2.803,-2.8049,-2.8205,-2.8134,-2.8154,-2.8188,-2.8231,-2.8235,-2.8262,-2.8302,-2.8307,-2.8268,-2.8343,-2.8357,-2.8443,-2.8488,-2.8408,-2.8414,-2.8668,-2.8673,-2.8677,-2.8719,0,0,0,0,0,0,-2.8024,-2.8047,-2.8084,-2.8135,-2.8158,-2.8279,-2.8233,-2.8239,-2.8274,-2.8271,-2.8324,-2.833,-2.8342,-2.8433,-2.8449,-2.8495,-2.842,-2.8664,-2.867,-2.8676,-2.8714,-2.8725,-2.8734,0,0,0,0,0,-2.8016,-2.8091,-2.8086,-2.8105,-2.8204,-2.8281,-2.8294,-2.8306,-2.8278,-2.8315,-2.8341,-2.8328,-2.8481,-2.8441,-2.846,-2.8509,-2.8661,-2.8668,-2.8675,-2.8709,-2.8723,-2.8734,0,0,0,0,0,0,-2.8043,-2.8098,-2.8092,-2.8186,-2.8229,-2.8278,-2.8325,-2.832,-2.8371,-2.8366,-2.8378,-2.8391,-2.8477,-2.8502,-2.8457,-2.8606,-2.8567,-2.8578,-2.8586,-2.8599,-2.8609,-2.86,-2.8425,0,0,0,0,0,-2.806,-2.8118,-2.8163,-2.8242,-2.8264,-2.8291,-2.8325,-2.8331,-2.8376,-2.8394,-2.8425,-2.847,-2.8528,-2.8565,-2.8621,-2.8718,-2.8729,-2.8761,-2.8771,-2.8779,-2.8788,-2.8842,-2.8856,-2.8702,-2.8702,-2.8702,0,0,-2.8096,-2.8133,-2.8168,-2.8248,-2.8282,-2.8342,-2.8306,-2.8371,-2.8415,-2.8403,-2.8485,-2.8511,-2.8561,-2.8653,-2.8695,-2.8676,-2.8834,-2.8788,-2.8794,-2.8799,-2.8851,-2.8865,-2.8878,-2.8707,-2.8706,-2.8705,0,0,-2.819,-2.8225,-2.8294,-2.8329,-2.8382,-2.84,-2.8417,-2.8467,-2.8483,-2.8566,-2.8559,-2.8612,-2.8712,-2.8748,-2.8779,-2.8891,-2.8881,-2.8909,-2.896,-2.9012,-2.9024,-2.9035,-2.9074,-2.9088,-2.8918,-2.8918,-2.8918,0,-2.8227,-2.8317,-2.833,-2.8396,-2.8431,-2.8424,-2.8494,-2.8528,-2.8596,-2.8621,-2.8599,-2.8725,-2.8758,-2.8858,-2.8886,-2.8912,-2.8931,-2.8901,-2.9022,-2.9033,-2.9043,-2.908,-2.9095,-2.8921,-2.892,-2.892,-2.892,0,-2.836,-2.8422,-2.8472,-2.8538,-2.8579,-2.8647,-2.8671,-2.8711,-2.8714,-2.8735,-2.882,-2.886,-2.8924,-2.8949,-2.8952,-2.905,-2.9037,-2.9019,-2.8979,-2.906,-2.9095,-2.911,-2.8925,-2.8924,-2.8923,-2.8922,0,0,-2.8471,-2.8546,-2.8563,-2.8594,-2.8652,-2.8701,-2.8769,-2.8832,-2.8866,-2.8914,-2.8971,-2.9057,-2.9041,-2.9077,-2.9084,-2.9131,-2.9216,-2.9107,-2.9108,-2.9125,-2.9326,-2.9338,-2.9354,-2.9211,-2.9214,-2.9216,-2.9321,0,-2.857,-2.869,-2.8705,-2.8811,-2.8869,-2.8865,-2.8925,-2.8967,-2.8989,-2.9042,-2.9066,-2.9126,-2.9101,-2.9123,-2.9169,-2.9195,-2.9256,-2.9188,-2.9263,-2.9266,-2.9249,-2.9372,-2.9385,-2.9482,-2.9335,-2.9338,-2.9339,0,-2.8701,-2.8753,-2.8866,-2.8917,-2.8942,-2.8995,-2.9054,-2.9105,-2.9154,-2.9167,-2.9208,-2.9211,-2.9281,-2.9241,-2.9339,-2.9292,-2.9325,-2.9343,-2.9347,-2.9353,-2.9306,-2.938,-2.9513,-2.9527,-2.9361,-2.9359,-2.9358,0,-2.877,-2.8868,-2.8948,-2.8975,-2.9037,-2.9075,-2.9103,-2.9149,-2.9186,-2.9238,-2.9263,-2.9323,-2.9355,-2.9402,-2.942,-2.9389,-2.9517,-2.9478,-2.9529,-2.9529,-2.9554,-2.9552,-2.9693,-2.9578,-2.9578,-2.9578,-2.9577,0,-2.8877,-2.8946,-2.898,-2.9029,-2.9106,-2.9124,-2.9199,-2.9226,-2.9268,-2.9322,-2.9323,-2.9374,-2.9397,-2.9452,-2.9467,-2.9545,-2.9561,-2.9573,-2.9575,-2.9571,-2.957,-2.9591,-2.9584,-2.9582,-2.9581,-2.958,-2.9579,0,-2.8966,-2.8991,-2.9078,-2.9131,-2.9146,-2.9201,-2.9246,-2.9294,-2.9316,-2.9385,-2.9402,-2.9438,-2.9502,-2.9527,-2.9605,-2.9616,-2.9706,-2.9705,-2.9689,-2.969,-2.9739,-2.9733,-2.9897,-2.9919,-2.9791,-2.9793,-2.9794,0,-2.9031,-2.9084,-2.9143,-2.918,-2.9209,-2.9269,-2.9307,-2.9327,-2.9367,-2.9428,-2.9468,-2.9533,-2.9585,-2.9689,-2.9722,-2.9782,-2.9781,-2.9835,-2.979,-2.9784,-2.978,-2.9776,-2.9781,-2.9842,-2.9843,-2.9844,-2.9845,0,-2.9145,-2.9156,-2.9211,-2.9272,-2.9317,-2.9366,-2.9413,-2.9443,-2.947,-2.9515,-2.9582,-2.9623,-2.9704,-2.9768,-2.9831,-2.986,-2.9857,-2.9859,-2.9874,-2.9869,-2.9857,-2.9863,-2.971,-2.9855,-2.9854,-2.9853,-2.9852,-2.9852,-2.9223,-2.927,-2.9319,-2.9381,-2.9419,-2.9464,-2.9511,-2.954,-2.9596,-2.9664,-2.9673,-2.9744,-2.9793,-2.9877,-2.9909,-2.9966,-2.9951,-2.9973,-2.9978,-2.9982,-2.9985,-2.9851,-2.9977,-2.9977,-2.9977,-2.9977,-2.9977,0,-2.9336,-2.9368,-2.9425,-2.9491,-2.954,-2.9535,-2.9587,-2.9628,-2.9691,-2.9737,-2.979,-2.9867,-2.9929,-2.9968,-3.0031,-3.0069,-3.0069,-3.0085,-3.0081,-3.0088,-2.9995,-2.9975,-3.0083,-3.0083,-3.0083,-3.0083,-3.0083,-3.0083,-2.94,-2.9479,-2.9496,-2.9594,-2.9626,-2.9696,-2.9726,-2.9767,-2.9804,-2.989,-2.9943,-2.9968,-3.0011,-3.0078,-3.0136,-3.0146,-3.0168,-3.0185,-3.0193,-3.0105,-3.0094,-3.0083,-3.0065,-3.019,-3.019,-3.028,-3.0281,-3.0282]},{"header":{"parameterUnit":"m.s-1","parameterCategory":1,"la1":30.2991,"la2":30.254,"lo1":-89.0895,"lo2":-89.0444,"dy":0.0017,"dx":0.0017,"nx":28,"ny":28,"refTime":"2024-02-10T09:00:00:Z","depth":0,"parameterNumber":3,"parameterNumberName":"V-component_of_WINDS"},"data":[0,0,0,0,0,0,0,0,0,0,0,0,0,0,0,0,0,0,0,0,0,0,0,0,0,0,0,0,0,0,0,0,0,0,0,0,0,0,0,0,0,0,0,0,0,0,0,0,0,0,0,0,0,0,0,0,0,0,1.5277,1.5278,0,1.534,1.534,1.5341,1.5364,1.5363,1.5363,1.5363,1.5424,1.5426,1.5428,0,0,0,0,0,0,0,0,0,0,0,0,0,1.5176,1.5178,1.5277,1.5278,1.5279,1.5339,1.534,1.5341,1.5364,1.5363,1.5363,1.5363,1.5424,1.5426,1.5428,0,0,0,0,0,0,0,0,0,0,0,0,0,1.5228,1.5179,1.5277,1.5297,1.53,1.5339,1.534,1.5341,1.5364,1.5363,1.5363,1.5363,1.5423,1.5426,1.5428,1.5451,0,0,1.5437,1.5438,0,0,0,0,0,0,0,0,1.5225,1.5231,1.5294,1.5296,1.5299,1.5344,1.5327,1.5378,1.5364,1.5339,1.5363,1.5363,1.5397,1.5402,1.5415,1.5454,1.5457,1.5437,1.5438,1.544,1.544,0,0,0,0,0,0,0,1.5221,1.5229,1.5302,1.5294,1.5298,1.5303,1.531,1.5337,1.5369,1.5341,1.5343,1.5351,1.5399,1.5412,1.5416,1.5458,1.5437,1.5439,1.5441,1.5442,1.5521,1.5522,0,0,0,0,0,0,1.5214,1.5226,1.53,1.5304,1.526,1.5305,1.5313,1.5329,1.5369,1.5375,1.5351,1.5351,1.5407,1.5413,1.5418,1.5449,1.544,1.5442,1.5444,1.5521,1.5522,1.5522,0,0,0,0,0,0,1.5212,1.5221,1.5297,1.5265,1.5275,1.5307,1.5326,1.5331,1.5344,1.5376,1.5382,1.5358,1.5407,1.5415,1.5444,1.5452,1.5443,1.5446,1.552,1.5521,1.5522,1.5511,0,0,0,0,0,0,1.5209,1.522,1.5229,1.5265,1.5277,1.5322,1.5326,1.5332,1.5349,1.535,1.5385,1.539,1.5408,1.5439,1.5446,1.5455,1.5448,1.552,1.5521,1.5522,1.551,1.5511,1.5511,0,0,0,0,0,1.5205,1.5222,1.5229,1.5238,1.5289,1.5322,1.5329,1.5349,1.5349,1.5359,1.538,1.5389,1.545,1.5442,1.545,1.546,1.5519,1.552,1.5521,1.551,1.5511,1.5511,0,0,0,0,0,0,1.5184,1.5227,1.5236,1.5265,1.529,1.5326,1.5338,1.5349,1.5374,1.5374,1.5398,1.5406,1.5433,1.5449,1.544,1.5486,1.5485,1.5488,1.5474,1.5475,1.5475,1.5471,1.545,0,0,0,0,0,1.5184,1.5207,1.5243,1.5265,1.5278,1.5306,1.5321,1.5335,1.5362,1.5372,1.5395,1.542,1.5445,1.5461,1.5485,1.5513,1.5521,1.5524,1.5524,1.5525,1.5527,1.5544,1.5546,1.5526,1.5526,1.5526,0,0,1.5181,1.5208,1.5221,1.5262,1.5283,1.5307,1.5314,1.5339,1.5357,1.5375,1.5405,1.5423,1.5452,1.5481,1.5495,1.5496,1.5534,1.5526,1.5526,1.5528,1.5546,1.5548,1.5549,1.5526,1.5526,1.5526,0,0,1.519,1.5212,1.5233,1.5255,1.5288,1.5307,1.5312,1.5347,1.536,1.5391,1.5405,1.5427,1.5469,1.549,1.5506,1.5525,1.5535,1.5532,1.5534,1.5551,1.5553,1.5555,1.5562,1.5565,1.5534,1.5534,1.5534,0,1.5182,1.522,1.5243,1.5268,1.5286,1.5305,1.5328,1.5347,1.5386,1.5398,1.5398,1.5453,1.5474,1.5509,1.5514,1.5526,1.5533,1.5528,1.5551,1.5553,1.5555,1.5562,1.5565,1.5534,1.5534,1.5534,1.5534,0,1.521,1.5236,1.5249,1.5288,1.5308,1.5331,1.5358,1.5375,1.5388,1.5407,1.5438,1.5465,1.5496,1.5505,1.5517,1.5543,1.5542,1.5546,1.5547,1.5556,1.5564,1.5567,1.5533,1.5533,1.5533,1.5533,0,0,1.5205,1.5259,1.5263,1.5282,1.532,1.534,1.5365,1.5397,1.5412,1.5438,1.546,1.5496,1.5501,1.552,1.5534,1.5549,1.5564,1.5552,1.5553,1.5554,1.5595,1.5592,1.5595,1.5571,1.5572,1.5572,1.5593,0,1.522,1.5266,1.5288,1.5324,1.5349,1.5369,1.5391,1.5417,1.5436,1.5459,1.548,1.5506,1.551,1.5522,1.5537,1.5559,1.5573,1.5558,1.5591,1.5592,1.5584,1.5599,1.5596,1.5614,1.5596,1.5597,1.5597,0,1.5242,1.527,1.5309,1.5347,1.5358,1.5377,1.5409,1.5432,1.5462,1.5475,1.5496,1.5511,1.5538,1.5537,1.5575,1.5564,1.558,1.5593,1.5594,1.5598,1.5595,1.5604,1.5621,1.5624,1.5602,1.5602,1.5601,0,1.5236,1.5283,1.5314,1.5329,1.5373,1.5386,1.5405,1.5435,1.5454,1.5482,1.5494,1.5524,1.5541,1.5564,1.5586,1.5583,1.5623,1.5623,1.5635,1.5634,1.5642,1.5641,1.5661,1.5651,1.5651,1.5651,1.5651,0,1.5249,1.5273,1.5312,1.533,1.5358,1.5384,1.541,1.543,1.5457,1.548,1.5498,1.5519,1.5548,1.5573,1.5591,1.562,1.5627,1.5639,1.5643,1.5637,1.5636,1.5648,1.5647,1.5651,1.5651,1.5651,1.5651,0,1.5247,1.5274,1.5309,1.5349,1.5359,1.5378,1.5412,1.5431,1.5451,1.548,1.5489,1.5521,1.5551,1.5576,1.5615,1.5628,1.5659,1.5664,1.5649,1.5651,1.5662,1.5661,1.5691,1.5697,1.5681,1.5682,1.5682,0,1.5254,1.5273,1.5316,1.5333,1.5352,1.538,1.5399,1.5426,1.5446,1.5483,1.5498,1.553,1.5557,1.5604,1.5631,1.5661,1.5667,1.5676,1.5672,1.5666,1.5669,1.5668,1.567,1.5676,1.5676,1.5676,1.5676,0,1.5264,1.5277,1.5305,1.5339,1.5362,1.5389,1.5417,1.543,1.5462,1.5483,1.5515,1.5536,1.5578,1.5609,1.5643,1.5662,1.5675,1.5677,1.5682,1.5676,1.5667,1.5673,1.565,1.5676,1.5676,1.5676,1.5676,1.5676,1.5267,1.5286,1.532,1.5351,1.5375,1.5401,1.5421,1.5445,1.5473,1.551,1.5524,1.5557,1.5588,1.5635,1.5655,1.5681,1.5683,1.5689,1.569,1.5692,1.5692,1.5663,1.5687,1.5687,1.5687,1.5687,1.5687,0,1.5279,1.5302,1.5331,1.537,1.5395,1.5406,1.5438,1.5458,1.5487,1.5516,1.5543,1.558,1.5612,1.5642,1.5675,1.569,1.5697,1.5698,1.5697,1.5702,1.5688,1.5681,1.5692,1.5692,1.5692,1.5692,1.5692,1.5692,1.5288,1.532,1.5338,1.5383,1.5406,1.544,1.5457,1.5481,1.5505,1.5547,1.5573,1.5593,1.5623,1.5659,1.5688,1.5696,1.5708,1.5708,1.5717,1.5703,1.5703,1.5702,1.5696,1.571,1.571,1.5729,1.573,1.573]}]]